ECHO 2 DEB (METAL OBJ), 742

Orbit data source: Space-Track

ECHO 2 DEB (METAL OBJ), 742 is space debris in LEO originally from a launch on Sat, 25 Jan 1964 UTC launched from the Air Force Western Test Range (AFWTR). Debris objects in space refer to the collection of defunct objects orbiting the Earth. Examples of debris include non-operational satellites, rocket bodies, and fragments generated from explosions, collisions, or faulty payload assembly.

Loading next visibility...
Identifier
742, 1964-004C
Orbit
LEO
Country
Flag of USUS
Related business
Manufacturer
Grummann
Mission
Spacecraft
Bus & Motor
ECHO CANISTER, Unknown motor
Mass
35 kg wet, 35 kg dry
Launch date (UTC)
1964-01-25 (62 years ago)
Launch vehicle
Unknown
Launch site
Air Force Western Test Range (AFWTR)
Object type
Payload
Rocket body
Debris
Shape & HBR
Unknown shape, 0.9 m
Radar Cross Section
Medium (>0.1 m² and <1 m²)

Expand to show TLE details & history
Last TLE update: 15 hours ago

TLE from 15 hours ago
0 ECHO 2 DEB (METAL OBJ)
1 00742U 64004C   25286.37423243  .00000113  00000-0  21344-3 0  9990
2 00742  81.4633 257.6853 0172359  11.5954 348.9061 13.26250379984648
Epoch: 2025-10-13T08:58Z
TLE epoch observation values (Epoch: 2025-10-13T08:58:53.681Z)
Latitude
-0.00011°
Longitude
100.78368°
Altitude
1,036.277 km
Speed
7.395 km/s
True Right ascension
17h 10m 44s
True Declination
0° 00' 00"
Sunlit
Object was in daylight at epoch
Visualization orbit readout
Latitude
Unknown
Longitude
Unknown
Altitude
Unknown
Speed
Unknown
Apparent Right ascension
Unknown
Apparent Declination
Unknown
Sunlit
N/A
Visualization observer readout
Local Sidereal Time
18:29:00
Azimuth
Unknown
Elevation
Unknown
Doppler factor
Unknown
Orbital elements
Apogee altitude
1,288.112 km
Perigee altitude
1,028.32 km
Semi-major axis
7,536.353 km
Eccentricity
0.01724
Inclination
81.4633°
RAAN
257.6853°
Arg. of periapsis
11.5954°
True anomaly
348.51786°
Mean anomaly
348.9061°
Eccentric anomaly
348.71281°
Mean motion
3.31743 °/min
Orbital period
108.52 mins
BSTAR
0.00021344
Loading maneuver chart data...
Computing Atmospheric mass density...
Loading historical data...
Loading historical data...
Loading historical data...
Loading historical data...
Loading historical data...
Loading historical data...
Loading historical data...

Documentation

Showing up to 5 results
|